Weather in Dublyani

Ukraine / Lviv District     49°29′57″N   23°24′21″E
temp.,
°C
wind,
m/s
gust,
m/s
humid.,
%
clouds,
%
prec.,
mm/h
press.,
hPa
HPBL,
m
3 august, tue
tue300:00+14wsw22875 0.0 101525
03:00+13wsw22868 0.0 101525
06:00+13wnw229112 0.0 101624
09:00+17wnw23761 0.0 1017337
12:00+21wnw24570 0.0 10161291
15:00+24nw2542100 0.0 10152357
18:00+23ene124483 0.0 10151668
21:00+18sse2265100 0.0 101515
4 august, wed
wed400:00+15sse357999 0.1 101667
03:00+14s118156 0.1 101626
06:00+13sse1177100 0.0 101512
09:00+18se2265100 0.0 1016144
12:00+23e2251100 0.0 1015666
15:00+22ese356597 0.3 1014459
18:00+21ene4770100 0.4 1013265
21:00+19ssw117663 0.5 101313
5 august, thu
thu500:00+17wnw2287100 0.0 101337
03:00+16wnw2294100 0.0 101147
06:00+16wnw2394100 0.0 101194
09:00+18wnw2385100 0.0 1010252
12:00+19nnw1182100 0.0 1009111
15:00+24ne2258100 0.0 1007705
18:00+19nw4793100 3.6 1006299
21:00+17sse2299100 10.9 1004116
6 august, fri
fri600:00+16nw5109693 13.5 1005381
03:00+14sw22955 13.6 100525
06:00+15wnw229499 0.1 100548
09:00+16w239198 0.1 1005200
12:00+19wsw348385 0.6 1006685
15:00+18wsw4791100 1.8 1006376
18:00+16w4992100 0.7 1007431
21:00+16w499279 0.8 1008391
7 august, sat
sat700:00+15wnw489497 0.1 1010441
03:00+13w3795100 0.1 1011206
06:00+12wnw249510 0.0 101181
09:00+16w23820 0.0 1012342
12:00+20wnw34630 0.0 10121213
15:00+23nw35500 0.0 10121634
18:00+23n34580 0.0 1012905
21:00+18ese22740 0.0 101311